EW9037 Weather Reports


time (UTC)temp
C
wind
direction
speed
KPH
gust
KPH
rain 1hr
cm
rain 24hr
cm
rain mn
cm
humidity
%
barometer
mb
20260906120024 22 9 3.2 6.4 0.00 0.00 0.00 95 1014.4
20260906114521 22 13 1.6 4.8 0.00 0.00 0.00 95 1014.1
20260906113018 21 13 3.2 6.4 0.00 0.00 0.00 96 1014.0
20260906111512 21 28 0.0 3.2 0.00 0.00 0.00 96 1013.8
20260906110006 21 351 0.0 0.0 0.00 0.00 0.00 96 1013.8
20260906104507 21 346 0.0 0.0 0.00 0.00 0.00 96 1013.7
20260906103026 21 193 0.0 0.0 0.00 0.00 0.00 96 1013.4
20260906101527 21 193 0.0 0.0 0.00 0.00 0.00 96 1013.4
20260906100025 21 193 0.0 0.0 0.00 0.00 0.00 96 1013.4
20260906094518 21 193 0.0 0.0 0.00 0.00 0.00 96 1013.2
20260906093027 21 193 0.0 0.0 0.00 0.00 0.00 96 1013.0
20260906091508 21 193 0.0 0.0 0.00 0.00 0.00 96 1012.9
20260906090007 21 193 0.0 0.0 0.00 0.00 0.00 96 1013.0
20260906084503 21 193 0.0 0.0 0.00 0.00 0.00 96 1012.7
20260906083004 21 193 0.0 0.0 0.00 0.00 0.00 95 1012.6
20260906081527 21 193 0.0 0.0 0.00 0.00 0.00 96 1012.6
20260906080023 21 193 0.0 0.0 0.00 0.00 0.00 95 1012.6
20260906074518 21 161 0.0 0.0 0.00 0.00 0.00 95 1012.6
20260906073014 21 99 0.0 0.0 0.00 0.00 0.00 94 1012.6
20260906071508 22 100 0.0 0.0 0.00 0.00 0.00 93 1012.6
20260906070007 22 97 0.0 0.0 0.00 0.00 0.00 94 1012.8
20260906064503 22 261 0.0 0.0 0.00 0.00 0.00 94 1012.7
20260906063028 22 298 0.0 0.0 0.00 0.00 0.00 94 1012.9
20260906061531 22 322 0.0 0.0 0.00 0.00 0.00 94 1013.2
20260906060023 22 279 0.0 0.0 0.00 0.00 0.00 94 1013.0
20260906054518 22 238 0.0 0.0 0.00 0.00 0.00 94 1013.0
20260906053019 22 217 0.0 0.0 0.00 0.00 0.00 94 1013.3
20260906051510 22 216 0.0 0.0 0.00 0.00 0.00 94 1013.1
20260906050005 22 161 0.0 0.0 0.00 0.00 0.00 94 1013.0
20260906044528 22 161 0.0 0.0 0.00 0.00 0.00 94 1012.9
20260906043026 22 161 0.0 0.0 0.00 0.00 0.00 94 1012.9
20260906041530 23 161 0.0 0.0 0.00 0.00 0.00 94 1012.7
20260906040017 23 161 0.0 0.0 0.00 0.00 0.00 93 1012.5
20260906034518 23 161 0.0 0.0 0.00 0.00 0.00 92 1012.7
20260906033016 23 161 0.0 0.0 0.00 0.00 0.00 92 1012.7
20260906031530 24 161 0.0 0.0 0.00 0.00 0.00 91 1012.9
20260906030029 24 228 0.0 0.0 0.00 0.00 0.00 91 1012.8
20260906024526 25 228 0.0 0.0 0.00 0.00 0.00 90 1012.9
20260906023020 25 242 0.0 0.0 0.00 0.00 0.00 89 1012.8
20260906021520 25 234 0.0 0.0 0.00 0.00 0.00 88 1012.5
20260906020012 26 267 0.0 0.0 0.00 0.00 0.00 88 1012.2
20260906014519 25 275 0.0 0.0 0.00 0.00 0.00 88 1011.9
20260906013032 26 315 0.0 0.0 0.00 0.00 0.00 87 1011.7
20260906011530 26 275 0.0 4.8 0.00 0.00 0.00 86 1011.8
20260906010030 26 308 0.0 0.0 0.00 0.00 0.00 87 1011.5
20260906004523 26 322 0.0 0.0 0.00 0.00 0.00 85 1011.4
20260906003020 27 322 0.0 0.0 0.00 0.00 0.00 82 1011.6
20260906001517 28 322 0.0 0.0 0.00 0.00 0.00 81 1011.8
20260906000013 28 347 0.0 0.0 0.00 0.00 0.00 80 1012.0
20260905234533 29 352 0.0 0.0 0.00 0.00 0.00 76 1012.0
20260905233029 30 352 0.0 0.0 0.00 0.00 0.00 72 1012.0
20260905231528 31 352 0.0 0.0 0.00 0.00 0.00 67 1011.9
20260905230026 32 352 0.0 1.6 0.00 0.00 0.00 64 1011.6
20260905224523 32 344 0.0 3.2 0.00 0.00 0.00 65 1011.6
20260905223022 31 317 0.0 3.2 0.00 0.00 0.00 66 1011.6
20260905221529 32 317 0.0 3.2 0.00 0.00 0.00 65 1011.6
20260905220034 32 302 0.0 3.2 0.00 0.00 0.00 62 1011.6
20260905214532 33 288 0.0 6.4 0.00 0.00 0.00 61 1011.7
20260905213034 33 254 3.2 9.7 0.00 0.00 0.00 58 1011.7
20260905211532 35 307 1.6 8.0 0.00 0.00 0.00 55 1011.7
20260905210029 35 323 3.2 6.4 0.00 0.00 0.00 54 1011.8
20260905204518 35 321 1.6 8.0 0.00 0.00 0.00 52 1012.0
20260905203016 35 235 3.2 8.0 0.00 0.00 0.00 54 1012.2
20260905201521 35 38 3.2 9.7 0.00 0.00 0.00 53 1012.4
20260905200009 35 197 3.2 9.7 0.00 0.00 0.00 54 1012.6
20260905194531 35 161 1.6 12.9 0.00 0.00 0.00 54 1012.7
20260905193027 34 227 4.8 12.9 0.00 0.00 0.00 56 1013.1
20260905191527 34 260 1.6 11.3 0.00 0.00 0.00 55 1013.3
20260905190021 33 56 1.6 8.0 0.00 0.00 0.00 57 1013.3
20260905184520 33 297 3.2 9.7 0.00 0.00 0.00 58 1013.6
20260905183014 32 182 0.0 9.7 0.00 0.00 0.00 58 1013.9
20260905181511 32 63 1.6 9.7 0.00 0.00 0.00 58 1014.0
20260905180031 33 237 4.8 9.7 0.00 0.00 0.00 60 1014.0
20260905174535 32 168 1.6 8.0 0.00 0.00 0.00 58 1014.3
20260905173037 31 190 8.0 14.5 0.00 0.00 0.00 61 1014.4
20260905171524 31 179 4.8 11.3 0.00 0.00 0.00 59 1014.4
20260905170034 31 151 1.6 12.9 0.00 0.00 0.00 63 1014.6
20260905164534 31 190 3.2 9.7 0.00 0.00 0.00 63 1014.9
20260905163034 31 171 6.4 11.3 0.00 0.00 0.00 62 1015.1
20260905161534 30 98 4.8 9.7 0.00 0.00 0.00 66 1015.3
20260905160034 30 33 1.6 12.9 0.00 0.00 0.00 1015.2
20260905154527 29 42 4.8 9.7 0.00 0.00 0.00 69 1015.3
20260905153026 28 94 3.2 16.1 0.00 0.00 0.00 70 1015.3
20260905151533 28 80 3.2 14.5 0.00 0.00 0.00 70 1015.6
20260905150037 28 53 6.4 14.5 0.00 0.00 0.00 72 1015.6
20260905144540 28 51 4.8 14.5 0.00 0.00 0.00 75 1015.8
20260905143012 27 110 8.0 14.5 0.00 0.00 0.00 76 1015.6
20260905141508 27 114 8.0 16.1 0.00 0.00 0.00 78 1015.7
20260905140004 27 55 6.4 16.1 0.00 0.00 0.00 81 1015.7
20260905134503 26 99 4.8 9.7 0.00 0.00 0.00 88 1015.8
20260905133024 25 38 6.4 12.9 0.00 0.00 0.00 90 1015.7
20260905131539 25 106 0.0 0.0 0.00 0.00 0.00 94 1015.2
20260905130016 23 151 0.0 1.6 0.00 0.00 0.00 95 1015.2
20260905124524 23 104 3.2 9.7 0.00 0.00 0.00 95 1015.4
20260905123010 23 66 0.0 0.0 0.00 0.00 0.00 96 1015.4
20260905121507 23 157 0.0 0.0 0.00 0.00 0.00 97 1015.1